When you browse on this site, cookies collect data to enhance your experience and personalize the content and advertising you see.
Visit our Privacy Policy to learn more. By continuing to use the site, you agree to this use of cookies and data.
  • In United Kingdom
  • List of Countries
  • For 7 days
  • Water Temperature
  • Weather Map
  • Weather Widgets
  • user-avatar
    Login

    Hourly Weather Csongrad

    Today, 16 September, Monday

    Time Temperature Precipitation Wind Pressure Humidity
    00:00 +19°C° 0 mm 1 mps 758 mmHg 51%
    01:00 +17°C° 0 mm 2 mps 758 mmHg 56%
    02:00 +17°C° 0 mm 2 mps 758 mmHg 59%
    03:00 +17°C° 0 mm 2 mps 758 mmHg 62%
    04:00 +16°C° 0 mm 2 mps 757 mmHg 65%
    05:00 +17°C° 0 mm 2 mps 757 mmHg 64%
    06:00 +18°C° 0 mm 2 mps 757 mmHg 62%
    07:00 +19°C° 0 mm 2 mps 757 mmHg 61%
    08:00 +21°C° 0 mm 3 mps 757 mmHg 55%
    09:00 +24°C° 0 mm 3 mps 757 mmHg 50%
    10:00 +26°C° 0 mm 3 mps 757 mmHg 44%
    11:00 +27°C° 0 mm 3 mps 756 mmHg 42%
    12:00 +29°C° 0 mm 3 mps 756 mmHg 39%
    13:00 +30°C° 0 mm 3 mps 755 mmHg 37%
    14:00 +30°C° 0 mm 3 mps 755 mmHg 36%
    15:00 +30°C° 0 mm 3 mps 754 mmHg 36%
    16:00 +30°C° 0 mm 3 mps 754 mmHg 36%
    17:00 +28°C° 0 mm 3 mps 753 mmHg 41%
    18:00 +26°C° 0 mm 3 mps 753 mmHg 46%
    19:00 +24°C° 0 mm 2 mps 753 mmHg 51%
    20:00 +24°C° 0.1 mm 2 mps 753 mmHg 53%
    21:00 +23°C° 0.1 mm 2 mps 753 mmHg 55%
    22:00 +21°C° 0.1 mm 2 mps 753 mmHg 58%
    23:00 +21°C° 0.5 mm 2 mps 753 mmHg 61%

    Tomorrow, 17 September, Tuesday

    Time Temperature Precipitation Wind Pressure Humidity
    00:00 +20°C° 0.5 mm 2 mps 753 mmHg 63%
    01:00 +20°C° 0.5 mm 2 mps 754 mmHg 66%
    02:00 +20°C° 0.1 mm 2 mps 753 mmHg 65%
    03:00 +19°C° 0.1 mm 2 mps 753 mmHg 64%
    04:00 +19°C° 0.1 mm 2 mps 753 mmHg 62%
    05:00 +20°C° 0 mm 2 mps 753 mmHg 60%
    06:00 +20°C° 0 mm 2 mps 753 mmHg 57%
    07:00 +21°C° 0 mm 2 mps 753 mmHg 55%
    08:00 +23°C° 0 mm 2 mps 753 mmHg 54%
    09:00 +24°C° 0 mm 3 mps 753 mmHg 53%
    10:00 +24°C° 0 mm 3 mps 754 mmHg 52%
    11:00 +24°C° 0 mm 3 mps 753 mmHg 54%
    12:00 +23°C° 0 mm 4 mps 753 mmHg 56%
    13:00 +23°C° 0 mm 4 mps 753 mmHg 58%
    14:00 +22°C° 0 mm 4 mps 752 mmHg 58%
    15:00 +22°C° 0 mm 3 mps 752 mmHg 58%
    16:00 +22°C° 0 mm 3 mps 752 mmHg 58%
    17:00 +22°C° 0 mm 3 mps 752 mmHg 59%
    18:00 +21°C° 0 mm 3 mps 752 mmHg 59%
    19:00 +21°C° 0 mm 3 mps 752 mmHg 60%
    20:00 +20°C° 0 mm 2 mps 752 mmHg 64%
    21:00 +19°C° 0 mm 2 mps 752 mmHg 67%
    22:00 +18°C° 0 mm 2 mps 753 mmHg 70%
    23:00 +18°C° 0 mm 2 mps 753 mmHg 72%

    Day after tomorrow, 18 September, Wednesday

    Time Temperature Precipitation Wind Pressure Humidity
    00:00 +17°C° 0 mm 3 mps 753 mmHg 75%
    01:00 +17°C° 0 mm 3 mps 754 mmHg 77%
    02:00 +15°C° 0 mm 4 mps 754 mmHg 70%
    03:00 +14°C° 0 mm 4 mps 755 mmHg 62%
    04:00 +14°C° 0 mm 5 mps 755 mmHg 55%
    05:00 +13°C° 0 mm 5 mps 756 mmHg 51%
    06:00 +13°C° 0 mm 6 mps 757 mmHg 48%
    07:00 +11°C° 0 mm 6 mps 758 mmHg 45%
    08:00 +14°C° 0 mm 6 mps 758 mmHg 41%
    09:00 +15°C° 0 mm 5 mps 759 mmHg 36%
    10:00 +16°C° 0 mm 5 mps 759 mmHg 32%
    11:00 +17°C° 0 mm 5 mps 759 mmHg 30%
    12:00 +19°C° 0 mm 5 mps 759 mmHg 28%
    13:00 +20°C° 0 mm 4 mps 759 mmHg 26%
    14:00 +20°C° 0 mm 4 mps 759 mmHg 26%
    15:00 +20°C° 0 mm 4 mps 759 mmHg 27%
    16:00 +19°C° 0 mm 4 mps 758 mmHg 27%
    17:00 +18°C° 0 mm 3 mps 759 mmHg 31%
    18:00 +16°C° 0 mm 3 mps 759 mmHg 36%
    19:00 +13°C° 0 mm 3 mps 759 mmHg 41%
    20:00 +13°C° 0 mm 2 mps 759 mmHg 43%
    21:00 +13°C° 0 mm 2 mps 760 mmHg 45%
    22:00 +12°C° 0 mm 2 mps 760 mmHg 47%
    23:00 +12°C° 0 mm 2 mps 760 mmHg 48%

    19 September, Thursday

    Time Temperature Precipitation Wind Pressure Humidity
    00:00 +10°C° 0 mm 2 mps 760 mmHg 50%
    01:00 +10°C° 0 mm 2 mps 760 mmHg 51%
    02:00 +9°C° 0 mm 2 mps 760 mmHg 52%
    03:00 +9°C° 0 mm 2 mps 760 mmHg 54%
    04:00 +9°C° 0 mm 2 mps 760 mmHg 55%
    05:00 +10°C° 0 mm 3 mps 760 mmHg 53%
    06:00 +10°C° 0 mm 3 mps 760 mmHg 52%
    07:00 +11°C° 0 mm 3 mps 760 mmHg 51%
    08:00 +13°C° 0 mm 4 mps 760 mmHg 45%
    09:00 +15°C° 0 mm 5 mps 760 mmHg 39%
    10:00 +17°C° 0 mm 5 mps 761 mmHg 34%
    11:00 +17°C° 0 mm 5 mps 760 mmHg 32%
    12:00 +19°C° 0 mm 5 mps 760 mmHg 31%
    13:00 +19°C° 0 mm 5 mps 760 mmHg 29%
    14:00 +19°C° 0 mm 5 mps 760 mmHg 29%
    15:00 +19°C° 0 mm 4 mps 759 mmHg 29%
    16:00 +18°C° 0 mm 4 mps 759 mmHg 29%
    17:00 +17°C° 0 mm 3 mps 760 mmHg 34%
    18:00 +14°C° 0 mm 3 mps 760 mmHg 39%
    19:00 +13°C° 0 mm 2 mps 760 mmHg 45%
    20:00 +12°C° 0 mm 2 mps 761 mmHg 48%
    21:00 +12°C° 0 mm 2 mps 761 mmHg 51%
    22:00 +11°C° 0 mm 1 mps 761 mmHg 54%
    23:00 +11°C° 0 mm 1 mps 761 mmHg 55%

    20 September, Friday

    Time Temperature Precipitation Wind Pressure Humidity
    00:00 +10°C° 0 mm 1 mps 762 mmHg 56%
    01:00 +9°C° 0 mm 2 mps 762 mmHg 58%
    02:00 +10°C° 0 mm 1 mps 762 mmHg 59%
    03:00 +9°C° 0 mm 1 mps 762 mmHg 61%
    04:00 +9°C° 0 mm 1 mps 762 mmHg 62%
    05:00 +10°C° 0 mm 1 mps 762 mmHg 60%
    06:00 +10°C° 0 mm 1 mps 762 mmHg 57%
    07:00 +10°C° 0 mm 2 mps 763 mmHg 55%
    08:00 +13°C° 0 mm 2 mps 763 mmHg 50%
    09:00 +15°C° 0 mm 2 mps 763 mmHg 44%
    10:00 +16°C° 0 mm 2 mps 764 mmHg 38%
    11:00 +17°C° 0 mm 3 mps 763 mmHg 35%
    12:00 +18°C° 0 mm 3 mps 763 mmHg 33%
    13:00 +19°C° 0 mm 3 mps 762 mmHg 30%
    14:00 +19°C° 0 mm 3 mps 762 mmHg 29%
    15:00 +19°C° 0 mm 3 mps 762 mmHg 28%
    16:00 +19°C° 0 mm 3 mps 762 mmHg 27%
    17:00 +17°C° 0 mm 3 mps 762 mmHg 31%
    18:00 +14°C° 0 mm 3 mps 762 mmHg 36%
    19:00 +13°C° 0 mm 2 mps 762 mmHg 40%
    20:00 +13°C° 0 mm 2 mps 763 mmHg 43%
    21:00 +12°C° 0 mm 2 mps 763 mmHg 45%
    22:00 +10°C° 0 mm 2 mps 763 mmHg 48%
    23:00 +10°C° 0 mm 2 mps 763 mmHg 49%

    21 September, Saturday

    Time Temperature Precipitation Wind Pressure Humidity
    00:00 +9°C° 0 mm 2 mps 763 mmHg 51%
    01:00 +9°C° 0 mm 2 mps 763 mmHg 52%
    02:00 +9°C° 0 mm 1 mps 763 mmHg 53%
    03:00 +9°C° 0 mm 1 mps 763 mmHg 53%
    04:00 +9°C° 0 mm 1 mps 763 mmHg 53%
    05:00 +10°C° 0 mm 1 mps 763 mmHg 51%
    06:00 +11°C° 0 mm 1 mps 763 mmHg 48%
    07:00 +11°C° 0 mm 1 mps 763 mmHg 45%
    08:00 +13°C° 0 mm 1 mps 763 mmHg 41%
    09:00 +15°C° 0 mm 1 mps 763 mmHg 36%
    10:00 +17°C° 0 mm 2 mps 764 mmHg 31%
    11:00 +18°C° 0 mm 2 mps 763 mmHg 29%
    12:00 +20°C° 0 mm 1 mps 763 mmHg 27%
    13:00 +21°C° 0 mm 1 mps 762 mmHg 25%
    14:00 +21°C° 0 mm 1 mps 762 mmHg 25%
    15:00 +21°C° 0 mm 1 mps 762 mmHg 25%
    16:00 +21°C° 0 mm 1 mps 761 mmHg 25%
    17:00 +20°C° 0 mm 1 mps 761 mmHg 28%
    18:00 +18°C° 0 mm 1 mps 761 mmHg 32%
    19:00 +15°C° 0 mm 1 mps 761 mmHg 35%
    20:00 +15°C° 0 mm 1 mps 762 mmHg 36%
    21:00 +14°C° 0 mm 1 mps 762 mmHg 38%
    22:00 +13°C° 0 mm 1 mps 762 mmHg 39%
    23:00 +13°C° 0 mm 1 mps 762 mmHg 40%
    Show more